TimePDT,TemperatureF,Dew PointF,Humidity,Sea Level PressureIn,VisibilityMPH,Wind Direction,Wind SpeedMPH,Gust SpeedMPH,PrecipitationIn,Events,Conditions,WindDirDegrees,DateUTC
12:07 AM,42.8,42.8,100,30.00,3.0,Calm,Calm,-,N/A,,Mostly Cloudy,0,2012-10-29 07:07:00
12:15 AM,42.8,42.8,100,29.99,2.5,ESE,5.8,-,N/A,,Mostly Cloudy,120,2012-10-29 07:15:00
12:26 AM,42.8,42.8,100,30.01,4.0,West,5.8,-,N/A,,Mostly Cloudy,270,2012-10-29 07:26:00
12:53 AM,43.0,42.1,97,30.03,2.5,North,3.5,-,N/A,,Overcast,350,2012-10-29 07:53:00
1:01 AM,42.8,42.8,100,30.01,3.0,Calm,Calm,-,N/A,,Overcast,0,2012-10-29 08:01:00
1:20 AM,42.8,42.8,100,30.01,3.0,SW,4.6,-,N/A,,Overcast,220,2012-10-29 08:20:00
1:35 AM,42.8,42.8,100,29.99,2.5,East,3.5,-,0.00,Rain,Light Rain,100,2012-10-29 08:35:00
1:49 AM,42.8,42.8,100,30.00,3.0,Calm,Calm,-,0.00,Rain,Light Rain,0,2012-10-29 08:49:00
1:53 AM,43.0,43.0,100,30.02,3.0,Calm,Calm,-,0.00,Rain,Light Rain,0,2012-10-29 08:53:00
2:09 AM,42.8,41.0,93,29.98,2.5,East,5.8,-,0.01,Rain,Light Rain,80,2012-10-29 09:09:00
2:28 AM,42.8,42.8,100,29.98,3.0,WNW,3.5,-,0.01,,Partly Cloudy,290,2012-10-29 09:28:00
2:39 AM,42.8,42.8,100,29.99,2.0,West,5.8,-,0.01,,Scattered Clouds,280,2012-10-29 09:39:00
2:41 AM,42.8,42.8,100,29.99,1.8,WNW,5.8,-,0.01,,Mostly Cloudy,290,2012-10-29 09:41:00
2:50 AM,42.8,42.8,100,29.99,0.8,WNW,4.6,-,0.01,,Mostly Cloudy,290,2012-10-29 09:50:00
2:53 AM,42.1,42.1,100,30.01,0.8,NW,3.5,-,0.01,,Mostly Cloudy,320,2012-10-29 09:53:00
3:06 AM,42.8,42.8,100,29.99,0.5,West,3.5,-,N/A,Fog,Fog,270,2012-10-29 10:06:00
3:19 AM,42.8,42.8,100,29.99,1.5,Calm,Calm,-,N/A,,Overcast,0,2012-10-29 10:19:00
3:53 AM,43.0,42.1,97,30.01,2.5,Variable,3.5,-,0.00,,Overcast,0,2012-10-29 10:53:00
4:00 AM,42.8,42.8,100,29.98,2.5,Calm,Calm,-,N/A,,Overcast,0,2012-10-29 11:00:00
4:08 AM,42.8,42.8,100,29.99,3.0,South,3.5,-,N/A,,Mostly Cloudy,170,2012-10-29 11:08:00
4:30 AM,42.8,41.0,93,29.99,2.5,East,3.5,-,N/A,,Scattered Clouds,80,2012-10-29 11:30:00
4:42 AM,41.0,41.0,100,29.99,1.0,Calm,Calm,-,N/A,,Mist,0,2012-10-29 11:42:00
4:53 AM,37.9,37.9,100,30.03,0.5,Calm,Calm,-,N/A,Fog,Fog,0,2012-10-29 11:53:00
5:00 AM,39.2,39.2,100,30.01,0.5,North,6.9,-,N/A,Fog,Fog,350,2012-10-29 12:00:00
5:07 AM,39.2,39.2,100,30.00,0.5,Calm,Calm,-,N/A,Fog,Fog,0,2012-10-29 12:07:00
5:12 AM,39.2,39.2,100,30.00,0.2,Calm,Calm,-,N/A,Fog,Fog,0,2012-10-29 12:12:00
5:34 AM,39.2,39.2,100,30.01,0.2,WNW,4.6,-,N/A,Fog,Fog,290,2012-10-29 12:34:00
5:51 AM,39.2,39.2,100,30.02,1.0,NW,3.5,-,N/A,,Overcast,310,2012-10-29 12:51:00
5:52 AM,39.9,39.9,100,30.04,1.2,NW,4.6,-,N/A,,Overcast,310,2012-10-29 12:52:00
5:55 AM,39.2,39.2,100,30.02,3.0,West,3.5,-,N/A,,Overcast,260,2012-10-29 12:55:00
6:09 AM,39.2,39.2,100,30.01,1.8,SSE,3.5,-,N/A,,Mostly Cloudy,150,2012-10-29 13:09:00
6:20 AM,39.2,37.4,93,30.02,0.5,SSE,5.8,-,N/A,Fog,Fog,160,2012-10-29 13:20:00
6:41 AM,39.2,37.4,93,30.01,0.5,Calm,Calm,-,N/A,Fog,Fog,0,2012-10-29 13:41:00
6:53 AM,39.0,39.0,100,30.04,0.2,North,3.5,-,N/A,Fog,Fog,10,2012-10-29 13:53:00
7:53 AM,39.9,39.9,100,30.07,0.2,Calm,Calm,-,N/A,Fog,Fog,0,2012-10-29 14:53:00
8:00 AM,39.2,39.2,100,30.04,0.5,WNW,4.6,-,N/A,Fog,Fog,290,2012-10-29 15:00:00
8:15 AM,41.0,41.0,100,30.04,0.2,Calm,Calm,-,N/A,Fog,Fog,0,2012-10-29 15:15:00
8:53 AM,43.0,43.0,100,30.09,0.8,North,3.5,-,N/A,,Overcast,360,2012-10-29 15:53:00
8:56 AM,44.6,42.8,93,30.06,1.2,Calm,Calm,-,N/A,,Overcast,0,2012-10-29 15:56:00
9:00 AM,44.6,44.6,100,30.06,3.0,Calm,Calm,-,N/A,,Mostly Cloudy,0,2012-10-29 16:00:00
9:11 AM,42.8,42.8,100,30.07,1.8,Calm,Calm,-,N/A,,Mostly Cloudy,0,2012-10-29 16:11:00
9:29 AM,44.6,44.6,100,30.06,1.0,Variable,4.6,-,N/A,,Mostly Cloudy,0,2012-10-29 16:29:00
9:37 AM,44.6,44.6,100,30.06,0.5,NE,3.5,-,N/A,Fog,Fog,50,2012-10-29 16:37:00
9:49 AM,46.4,46.4,100,30.06,2.5,WSW,3.5,-,N/A,,Mostly Cloudy,250,2012-10-29 16:49:00
9:53 AM,46.9,46.9,100,30.07,7.0,Calm,Calm,-,N/A,,Scattered Clouds,0,2012-10-29 16:53:00
10:53 AM,54.0,48.0,80,30.07,10.0,Calm,Calm,-,N/A,,Mostly Cloudy,0,2012-10-29 17:53:00
11:53 AM,55.0,48.9,80,30.08,10.0,North,4.6,-,0.00,,Overcast,350,2012-10-29 18:53:00
12:53 PM,52.0,50.0,93,30.11,6.0,NNW,5.8,-,0.02,Rain,Light Rain,330,2012-10-29 19:53:00
1:53 PM,52.0,50.0,93,30.12,8.0,NNW,3.5,-,0.01,Rain,Light Rain,340,2012-10-29 20:53:00
2:53 PM,55.9,52.0,87,30.10,10.0,ESE,10.4,-,0.02,,Overcast,110,2012-10-29 21:53:00
3:53 PM,55.0,51.1,86,30.12,10.0,ENE,10.4,-,N/A,,Overcast,70,2012-10-29 22:53:00
4:53 PM,55.9,48.9,77,30.12,10.0,SE,8.1,-,N/A,,Clear,130,2012-10-29 23:53:00
5:53 PM,55.9,45.0,67,30.11,10.0,Variable,4.6,-,N/A,,Clear,0,2012-10-30 00:53:00
6:53 PM,46.9,46.0,97,30.15,10.0,North,5.8,-,N/A,,Scattered Clouds,350,2012-10-30 01:53:00
7:53 PM,46.0,45.0,96,30.15,10.0,SSE,6.9,-,N/A,,Mostly Cloudy,150,2012-10-30 02:53:00
8:53 PM,44.1,44.1,100,30.15,10.0,SSE,6.9,-,N/A,,Clear,160,2012-10-30 03:53:00
9:53 PM,43.0,41.0,93,30.15,4.0,Calm,Calm,-,N/A,,Clear,0,2012-10-30 04:53:00
10:33 PM,42.8,42.8,100,30.13,1.8,SSW,3.5,-,N/A,,Partly Cloudy,200,2012-10-30 05:33:00
10:48 PM,42.8,42.8,100,30.13,1.0,Calm,Calm,-,N/A,,Mostly Cloudy,0,2012-10-30 05:48:00
10:53 PM,43.0,43.0,100,30.13,1.0,Calm,Calm,-,N/A,,Mist,0,2012-10-30 05:53:00
11:05 PM,42.8,42.8,100,30.13,0.5,SSE,3.5,-,N/A,Fog,Fog,150,2012-10-30 06:05:00
11:16 PM,42.8,41.0,93,30.12,0.5,East,4.6,-,N/A,Fog,Fog,80,2012-10-30 06:16:00
11:20 PM,41.0,41.0,100,30.12,1.2,ESE,6.9,-,N/A,,Partly Cloudy,110,2012-10-30 06:20:00
11:23 PM,42.8,42.8,100,30.12,3.0,ESE,5.8,-,N/A,,Partly Cloudy,120,2012-10-30 06:23:00
11:53 PM,41.0,41.0,100,30.13,5.0,Calm,Calm,-,N/A,,Clear,0,2012-10-30 06:53:00